Location: Newark
(39.9581°N, 97.2014°W)
Time: 01:12:36
(UTC+00:00)

Envisat - Pass Details

Date: 21 January 2020
Orbit: 764 x 766 km, 98.1° (Epoch: 27 February)

Event Time Altitude Azimuth Distance (km) Brightness Sun altitude
Rises 01:33:05 0° 207° (SSW) 3,219 6.7 -22.7°
Reaches altitude 10° 01:36:07 10° 227° (SW) 2,298 6.2 -23.3°
Maximum altitude 01:39:28 18° 268° (W) 1,834 5.8 -23.9°
Drops below altitude 10° 01:42:49 10° 310° (NW) 2,309 6.0 -24.6°
Sets 01:45:55 0° 329° (NNW) 3,241 6.6 -25.1°
